Theta_e
321 322 320 321 323 324 326 326 329 332 332 332 347 348 346 345 342 341 340 342 343 341
319 319 320 320 321 322 324 329 330 329 327 326 334 347 348 346 345 343 343 346 346 343
318 320 320 320 321 322 323 325 326 328 331 331 330 330 337 347 347 345 345 348 346 345
318 315 315 316 319 319 320 322 327 331 331 332 333 333 330 334 344 346 346 347 346 344
313 314 314 312 313 317 319 322 322 323 326 329 331 333 332 332 342 346 345 346 346 345
313 313 312 315 315 313 319 322 322 322 322 324 326 328 332 333 335 345 347 346 347 346
310 312 313 313 314 316 317 314 316 319 320 322 326 328 330 334 334 342 347 347 346 343
312 313 312 313 313 313 313 316 317 318 318 321 323 325 326 331 333 338 343 344 345 343
311 311 312 311 312 312 312 311 312 313 315 319 323 315 311 317 325 334 340 340 342 343
309 309 309 310 310 310 309 309 310 312 314 317 320 309 308 310 324 328 338 339 340 337
308 308 308 308 309 307 306 308 309 311 313 315 319 308 306 308 322 326 336 340 338 335
307 307 307 306 306 308 308 308 308 310 311 314 316 307 305 309 324 327 337 339 336 333
306 306 305 306 306 307 307 307 309 309 312 310 311 307 304 308 322 328 335 337 334 318
306 306 307 307 307 308 308 308 308 309 310 311 312 314 304 305 320 329 335 334 331 329
Wind_Speed
7 4 3 4 4 5 4 4 3 4 4 6 7 11 10 9 9 10 10 14 14 9
6 7 6 7 6 4 6 5 5 7 8 7 7 6 11 9 11 9 10 12 12 11
8 7 6 5 6 6 6 5 7 9 9 10 9 7 8 8 10 11 10 9 11 12
7 7 6 4 5 5 6 6 7 7 7 8 11 9 9 11 14 12 13 11 11 14
9 7 7 6 6 5 7 8 7 9 10 9 11 13 11 12 14 13 14 13 14 14
8 9 9 8 8 7 6 6 7 9 11 13 13 14 15 14 14 15 14 15 15 15
9 9 9 8 8 8 7 7 11 12 12 14 14 14 16 16 14 15 16 15 15 14
6 7 8 8 9 8 8 8 8 12 15 15 13 12 15 15 13 14 16 14 14 10
4 6 7 8 9 8 8 8 9 11 15 16 12 13 14 15 12 17 15 13 12 11
6 6 7 7 8 10 10 8 9 9 13 18 16 14 17 19 14 14 17 13 11 9
6 7 8 10 12 8 6 8 9 12 13 16 15 14 15 18 16 15 21 14 12 12
7 10 12 15 16 16 15 14 15 14 17 18 16 13 14 14 14 17 18 11 12 13
9 14 17 17 16 14 15 17 15 17 14 15 15 14 14 14 10 16 13 10 12 19
14 17 17 15 14 15 16 16 15 14 14 15 13 13 18 19 14 14 12 9 9 9
Wind_Direction
243 227 248 248 236 224 235 254 297 275 248 269 251 229 215 216 223 222 230 241 236 227
231 223 223 239 251 275 297 300 280 273 277 260 267 246 220 213 227 223 229 240 230 222
217 228 234 240 247 248 260 260 271 275 274 281 268 248 265 239 229 231 232 233 224 221
203 202 208 220 259 269 263 250 252 257 264 263 274 269 250 260 253 229 233 232 220 219
202 201 203 224 245 260 279 270 253 261 261 265 273 274 263 258 256 243 235 231 226 218
203 197 202 204 209 231 253 270 279 273 278 278 270 275 281 265 261 245 237 231 223 219
204 201 196 203 208 213 215 239 273 277 275 273 274 269 268 271 256 249 239 229 223 219
218 208 206 203 209 218 220 227 241 270 274 268 263 267 274 274 263 259 238 232 217 208
249 243 224 222 215 209 220 227 239 257 270 274 267 266 268 268 279 280 242 228 210 197
257 263 265 248 228 227 222 215 228 239 262 270 265 253 263 270 276 277 254 219 198 185
236 249 257 261 261 246 225 228 234 245 248 260 266 256 262 268 270 273 259 211 183 173
240 253 256 256 256 259 254 252 249 248 250 251 257 254 266 269 272 274 252 193 173 156
252 259 260 258 256 252 250 254 258 251 237 246 259 256 258 261 266 266 243 183 170 164
257 256 249 247 250 249 247 246 242 242 246 254 250 258 248 247 247 252 228 177 155 150